map of LRR home
LRR - Airport
Location
City:  Lar, Fars, Iran
ICAO:OISL
IATA:LRR

Details
Type:Airport (Aerodrome, Airfield)
Latitude:2740'29"N (27.674725)
Longitude:5423'00"E (54.383278)
Datum:WGS 1984
Elevation:2641 ft (805 m)
Variation:2.68E (WMM2015v2 magnetic declination)
0.05 annual change
Runways:1
Longest:10334 × 148 ft (3150 × 45 m), paved

Time
Time Zone:UTC+3:30 (DST+4:30)
Local Time:

Weather
METAR:OISL 041400Z 29008KT CAVOK 15/03 Q1017
TAF:OISL 041100Z 0412/0518 33006KT 7000 NSC
BECMG 0420/0422 3000 BR
BECMG 0504/0506 7000

Related Locations
Nearby:
Farthest:GMR: 11783 mi / 18963 km
Mangareva [Totegegie], Gambier Islands, PF

Find:

   beyond  
but within

Other Information
Maps:
NOTAMs:
Links:
Sources:

  
  • flag of Iran
  

Sectional Chart

Flight Planning
at skyvector.com

Satellite Image

Google Maps Satellite view

 

Copyright © 2004-2019 Karl L. Swartz. All rights reserved.
The Great Circle Mapper name and logo are trademarks of the Great Circle Mapper.
All other trademarks mentioned herein belong to their respective owners.
Please see credits for attibutions and further copyright information.

  Follow gcmap on Facebook Follow gcmap on Twitter GCmap on LinkedIn

hCard Microformat

Geo Microformat